Regional Weather Roundup
Issued by NWS

Home | Current Version | Previous Version | Graphics & Text | Print | Product List | Glossary Off
Versions: 1 2 3 4 5 6 7 8 9 10 11 12 13 14 15 16 17 18 19 20 21 22 23 24 25 26 27 28 29 30 31 32 33 34 35 36 37 38 39 40 41 42 43 44 45 46 47 48 49 50

000
ASUS43 KTOP 300908
RWRKS

WEATHER ROUNDUP FOR KANSAS
NATIONAL WEATHER SERVICE GOODLAND KS
400 AM CDT TUE JUN 30 2015

NOTE:  "FAIR" INDICATES FEW OR NO CLOUDS BELOW 12,000 FEET WITH NO
SIGNIFICANT WEATHER AND/OR OBSTRUCTIONS TO VISIBILITY.

KSZ001>006-013>018-027>032-041>047-301000-
NORTHWEST KANSAS

CITY           SKY/WX    TMP DP  RH WIND       PRES   REMARKS
GOODLAND       CLEAR     67  53  61 SW9       30.08F
HAYS           CLEAR     64  52  63 CALM      29.99F
HILL CITY      CLEAR     63  55  75 CALM      30.00F
RUSSELL        CLEAR     71  57  61 S10       29.97F
$$

KSZ061>065-074>080-084>089-301000-
SOUTHWEST KANSAS

CITY           SKY/WX    TMP DP  RH WIND       PRES   REMARKS
DODGE CITY     CLEAR     69  55  60 SW9       30.05S
ELKHART          N/A     66  52  61 SW6         N/A
GARDEN CITY    CLEAR     65  58  78 SW6       30.07S
GREAT BEND     CLEAR     66  57  72 S5        30.01F
LIBERAL        CLEAR     64  55  72 SW7         N/A
PRATT          CLEAR    N/A N/A N/A CALM      30.02S
$$

KSZ066>073-081>083-090>101-301000-
SOUTHEAST KANSAS

CITY           SKY/WX    TMP DP  RH WIND       PRES   REMARKS
CHANUTE        CLEAR     66  63  90 SW3       29.96S
COFFEYVILLE    CLEAR     67  66  97 CALM      29.94F
HUTCHINSON     CLEAR     63  57  81 CALM      29.98F
MEDICINE LODGE   N/A     66  61  84 N3        29.99F
NEWTON         CLEAR     70  55  60 SW5       30.01S
PARSONS        CLEAR     64  63  96 CALM      29.97R
WICHITA INTL   PTCLDY    69  59  70 CALM      29.97F
WICHITA JABRA  CLEAR     71  59  65 SW6       29.98F
WICHITA MCCONL CLEAR     70  59  67 CALM      29.98F
WINFIELD       CLEAR     66  60  81 CALM      29.99S
$$

KSZ007>012-019>026-033>040-048>060-102>105-301000-
NORTHEAST KANSAS

CITY           SKY/WX    TMP DP  RH WIND       PRES   REMARKS
CONCORDIA      CLEAR     69  58  67 SW7       29.96F
EMPORIA        CLOUDY    68  60  75 W6        29.96F
LAWRENCE       PTCLDY    65  63  93 NW3       29.93S
MANHATTAN      CLEAR     64  62  93 CALM      29.95F
MARYSVILLE     CLEAR     63  61  94 S3        29.95S
OLATHE IND     CLEAR     70  63  78 W5        29.94F
OLATHE EXE     CLEAR     69  64  84 W3        29.93S
SALINA         CLEAR     66  59  78 S3        29.97F
TOPEKA BILLARD CLEAR     68  65  90 CALM      29.93F
TOPEKA FORBES  PTCLDY    70  62  76 SW3       29.94S
$$


USA.gov is the U.S. government's official web portal to all federal, state and local government web resources and services.